Hereford, TX

10:43 PM CDT on June 27, 2017 (GMT -0500)
Hereford Municipal

Weather History for KHRX - July, 2013

Change the Weather History Date:

Monday, July 8, 2013

  Actual Average (KCVN) Record (KCVN)
Temperature  
Mean Temperature 79 °F -  
Max Temperature 94 °F 92 °F 107 °F (1940)
Min Temperature 64 °F 62 °F 54 °F (1952)
Cooling Degree Days 14    
Growing Degree Days 29 (Base 50)    
Moisture  
Dew Point 53 °F    
Average Humidity 41    
Maximum Humidity 69    
Minimum Humidity 23    
Precipitation  
Precipitation 0.00 in - - ()
Sea Level Pressure  
Sea Level Pressure 30.14 in    
Wind  
Wind Speed 8 mph (South)    
Max Wind Speed 20 mph    
Max Gust Speed 28 mph    
Visibility 10 miles    
Events      
Averages and records for this station are not official NWS values.
T = Trace of Precipitation, MM = Missing Value Source: NWS Daily Summary

Daily Weather History Graph

Daily Weather History Graph

Search for Another Location

Airport or City:

Trip Planner

Search our weather history database for the weather conditions in past years. The results will help you decide how hot, cold, wet, or windy it might be!

Date:

Astronomy

Jul. 08, 2013 Rise Set
Actual Time 6:43 AM CDT 9:05 PM CDT
Civil Twilight 6:13 AM CDT 9:34 PM CDT
Nautical Twilight 5:37 AM CDT 10:10 PM CDT
Astronomical Twilight 4:58 AM CDT 10:50 PM CDT
Moon 7:10 AM CDT (7/8) 9:13 PM CDT (7/8)
Length of Visible Light 15h 21m
Length of Day
14h 22m
New Moon, 0% of the Moon is Illuminated
Jul 8
New Moon
Jul 15
First Quarter
Jul 22
Full
Jul 29
Last Quarter
Aug 6
New

Hourly Weather History & Observations

Time (CDT) Temp. Heat Index Dew Point Humidity Pressure Visibility Wind Dir Wind Speed Gust Speed Precip Events Conditions
12:15 AM 74.3 °F - 53.1 °F 47% 30.12 in 10.0 mi South 8.1 mph - N/A   Clear
12:35 AM 73.2 °F - 53.4 °F 50% 30.13 in 10.0 mi SSE 5.8 mph - N/A   Clear
12:55 AM 71.6 °F - 53.6 °F 53% 30.13 in 10.0 mi South 5.8 mph - N/A   Clear
1:15 AM 69.8 °F - 54.0 °F 57% 30.12 in 10.0 mi South 5.8 mph - N/A   Clear
1:35 AM 68.9 °F - 54.0 °F 59% 30.12 in 10.0 mi South 4.6 mph - N/A   Clear
1:55 AM 69.8 °F - 54.5 °F 58% 30.12 in 10.0 mi South 4.6 mph - N/A   Clear
2:15 AM 70.7 °F - 54.7 °F 57% 30.12 in 10.0 mi SSE 6.9 mph - N/A   Clear
2:35 AM 70.9 °F - 54.9 °F 57% 30.12 in 10.0 mi South 5.8 mph - N/A   Clear
2:55 AM 71.1 °F - 54.7 °F 56% 30.12 in 10.0 mi South 4.6 mph - N/A   Clear
3:15 AM 71.2 °F - 54.9 °F 56% 30.12 in 10.0 mi South 5.8 mph - N/A   Clear
3:35 AM 70.9 °F - 54.5 °F 56% 30.12 in 10.0 mi South 4.6 mph - N/A   Clear
3:55 AM 70.9 °F - 54.7 °F 56% 30.13 in 10.0 mi South 4.6 mph - N/A   Clear
4:15 AM 70.5 °F - 54.9 °F 58% 30.13 in 10.0 mi South 4.6 mph - N/A   Clear
4:35 AM 69.8 °F - 54.5 °F 58% 30.13 in 10.0 mi South 5.8 mph - N/A   Clear
4:55 AM 68.4 °F - 54.7 °F 62% 30.13 in 10.0 mi South 5.8 mph - N/A   Clear
5:15 AM 67.1 °F - 54.3 °F 63% 30.13 in 10.0 mi South 6.9 mph - N/A   Clear
5:55 AM 65.8 °F - 54.0 °F 65% 30.14 in 10.0 mi South 4.6 mph - N/A   Clear
6:15 AM 66.4 °F - 53.6 °F 63% 30.14 in 10.0 mi South 3.5 mph - N/A   Clear
6:35 AM 64.9 °F - 54.5 °F 69% 30.15 in 10.0 mi Calm Calm - N/A   Clear
6:55 AM 67.1 °F - 53.6 °F 62% 30.15 in 10.0 mi Calm Calm - N/A   Clear
7:15 AM 65.7 °F - 54.7 °F 68% 30.16 in 10.0 mi SW 3.5 mph - N/A   Clear
7:35 AM 66.4 °F - 55.6 °F 68% 30.16 in 10.0 mi South 3.5 mph - N/A   Clear
7:55 AM 68.4 °F - 55.0 °F 62% 30.16 in 10.0 mi South 3.5 mph - N/A   Clear
8:15 AM 70.9 °F - 54.9 °F 57% 30.17 in 10.0 mi South 5.8 mph - N/A   Clear
8:35 AM 73.6 °F - 55.2 °F 53% 30.17 in 10.0 mi South 5.8 mph - N/A   Clear
8:55 AM 77.0 °F - 54.1 °F 45% 30.18 in 10.0 mi South 11.5 mph - N/A   Clear
9:15 AM 78.3 °F - 54.3 °F 43% 30.18 in 10.0 mi SSW 13.8 mph - N/A   Clear
9:35 AM 80.1 °F 80.1 °F 54.5 °F 41% 30.18 in 10.0 mi SSW 11.5 mph - N/A   Clear
9:55 AM 81.1 °F 80.7 °F 54.1 °F 39% 30.19 in 10.0 mi SSW 13.8 mph 17.3 mph N/A   Clear
10:15 AM 83.1 °F 82.2 °F 54.9 °F 38% 30.19 in 10.0 mi SSW 15.0 mph 21.9 mph N/A   Clear
10:35 AM 84.6 °F 83.2 °F 54.9 °F 36% 30.19 in 10.0 mi SW 16.1 mph 20.7 mph N/A   Clear
10:55 AM 84.9 °F 83.6 °F 55.2 °F 36% 30.19 in 10.0 mi SW 15.0 mph - N/A   Clear
11:15 AM 85.6 °F 84.1 °F 54.9 °F 35% 30.20 in 10.0 mi SW 12.7 mph 20.7 mph N/A   Clear
11:35 AM 86.7 °F 84.9 °F 54.5 °F 33% 30.19 in 10.0 mi SW 15.0 mph 21.9 mph N/A   Clear
11:55 AM 87.1 °F 84.9 °F 53.2 °F 31% 30.19 in 10.0 mi SSW 13.8 mph 18.4 mph N/A   Clear
12:15 PM 88.2 °F 86.1 °F 53.8 °F 31% 30.19 in 10.0 mi SSW 17.3 mph 23.0 mph N/A   Clear
12:35 PM 89.1 °F 86.9 °F 53.8 °F 30% 30.18 in 10.0 mi SSW 13.8 mph 21.9 mph N/A   Clear
12:55 PM 89.2 °F 87.1 °F 54.0 °F 30% 30.18 in 10.0 mi SSW 19.6 mph 24.2 mph N/A   Clear
1:15 PM 89.8 °F 87.5 °F 53.4 °F 29% 30.18 in 10.0 mi SW 13.8 mph 23.0 mph N/A   Clear
1:35 PM 89.6 °F 87.3 °F 53.8 °F 29% 30.17 in 10.0 mi SSW 13.8 mph 19.6 mph N/A   Clear
1:55 PM 90.7 °F 88.3 °F 53.6 °F 28% 30.16 in 10.0 mi SSW 15.0 mph 21.9 mph N/A   Clear
2:15 PM 91.4 °F - 52.7 °F 27% 30.15 in 10.0 mi South 8.1 mph 21.9 mph N/A   Scattered Clouds
2:35 PM 91.6 °F - 52.5 °F 26% 30.14 in 10.0 mi South 10.4 mph 26.5 mph N/A   Clear
2:55 PM 91.6 °F - 52.7 °F 27% 30.14 in 10.0 mi SSW 15.0 mph 24.2 mph N/A   Scattered Clouds
3:15 PM 91.8 °F 89.3 °F 53.1 °F 27% 30.13 in 10.0 mi SSW 12.7 mph 21.9 mph N/A   Scattered Clouds
3:35 PM 93.2 °F 90.8 °F 53.2 °F 26% 30.13 in 10.0 mi SSW 17.3 mph 27.6 mph N/A   Scattered Clouds
3:55 PM 92.3 °F - 52.7 °F 26% 30.12 in 10.0 mi South 15.0 mph 19.6 mph N/A   Scattered Clouds
4:15 PM 92.8 °F - 52.5 °F 25% 30.11 in 10.0 mi South 12.7 mph 19.6 mph N/A   Scattered Clouds
4:35 PM 92.7 °F - 51.6 °F 25% 30.11 in 10.0 mi South 6.9 mph 21.9 mph N/A   Clear
4:55 PM 94.1 °F - 51.4 °F 23% 30.10 in 10.0 mi South 15.0 mph 20.7 mph N/A   Clear
5:15 PM 93.2 °F - 50.5 °F 23% 30.10 in 10.0 mi South 17.3 mph 23.0 mph N/A   Clear
5:35 PM 93.6 °F - 50.5 °F 23% 30.09 in 10.0 mi South 15.0 mph 27.6 mph N/A   Clear
5:55 PM 93.2 °F - 50.5 °F 23% 30.09 in 10.0 mi SSE 13.8 mph 24.2 mph N/A   Clear
6:15 PM 92.5 °F - 50.2 °F 24% 30.10 in 10.0 mi South 13.8 mph 20.7 mph N/A   Clear
6:35 PM 92.5 °F - 50.0 °F 23% 30.10 in 10.0 mi South 17.3 mph 21.9 mph N/A   Clear
6:55 PM 91.9 °F - 50.0 °F 24% 30.10 in 10.0 mi South 9.2 mph - N/A   Clear
7:15 PM 91.6 °F - 50.7 °F 25% 30.10 in 10.0 mi South 16.1 mph 19.6 mph N/A   Clear
7:35 PM 91.0 °F - 50.5 °F 25% 30.10 in 10.0 mi South 16.1 mph 20.7 mph N/A   Clear
7:55 PM 90.1 °F - 50.2 °F 25% 30.11 in 10.0 mi South 10.4 mph 18.4 mph N/A   Clear
8:15 PM 89.1 °F - 51.4 °F 27% 30.11 in 10.0 mi SSE 9.2 mph - N/A   Clear
8:35 PM 87.4 °F - 50.9 °F 28% 30.11 in 10.0 mi SSE 8.1 mph - N/A   Clear
8:55 PM 86.4 °F - 50.7 °F 29% 30.11 in 10.0 mi SSE 9.2 mph - N/A   Clear
9:15 PM 85.1 °F - 51.1 °F 31% 30.13 in 10.0 mi SSE 8.1 mph - N/A   Clear
9:35 PM 83.8 °F - 51.4 °F 33% 30.13 in 10.0 mi SSE 6.9 mph - N/A   Clear
9:55 PM 81.5 °F - 52.9 °F 37% 30.13 in 10.0 mi SSE 5.8 mph - N/A   Clear
10:15 PM 80.8 °F - 52.7 °F 38% 30.14 in 10.0 mi SSE 8.1 mph - N/A   Clear
10:35 PM 80.6 °F - 52.7 °F 38% 30.14 in 10.0 mi SSE 9.2 mph - N/A   Clear
10:55 PM 80.2 °F - 52.7 °F 38% 30.15 in 10.0 mi SSE 10.4 mph - N/A   Clear
11:15 PM 78.3 °F - 53.2 °F 42% 30.15 in 10.0 mi South 8.1 mph - N/A   Clear
11:35 PM 77.5 °F - 53.2 °F 43% 30.15 in 10.0 mi South 9.2 mph - N/A   Clear
11:55 PM 77.2 °F - 53.8 °F 44% 30.14 in 10.0 mi South 9.2 mph - N/A   Clear